Regional Weather Roundup
Issued by NWS State College, PA

Home | Current Version | Previous Version | Text Only | Print | Product List | Glossary On
Versions: 1 2 3 4 5 6 7 8 9 10 11 12 13 14 15 16 17 18 19 20 21 22 23 24 25 26 27 28 29 30 31 32 33 34 35 36 37 38 39 40 41 42 43 44 45 46 47 48 49 50
000
ASUS41 KCTP 051003
RWRCTP

REGIONAL WEATHER ROUNDUP
NATIONAL WEATHER SERVICE STATE COLLEGE PA
500 AM EST THU MAR 05 2015

Note: "fair" indicates few or no clouds below 12,000 feet with no
significant weather and/or obstructions to visibility.

* = STATION THAT DOES NOT REPORT PRECIPITATION /E.G. RAIN...SNOW...ETC/
    THUNDER OR FOG.

PAZ002>004-007>009-013>016-020>023-029>032-051100-
WESTERN PENNSYLVANIA

CITY           SKY/WX    TMP DP  RH WIND       PRES   REMARKS
ERIE           CLOUDY    13   2  61 N13       30.26R WCI  -2
MEADVILLE      CLOUDY    13   4  67 N9        30.16R WCI   1
FRANKLIN*      CLOUDY    12   3  67 N7        30.14S WCI   2
NEW CASTLE     PTSUNNY   15   7  71 N14       30.21R WCI   0
BEAVER COUNTY  NOT AVBL
BUTLER*        CLOUDY    16  10  79 N5        30.16R WCI   9
PITTSBURGH INT LGT SNOW  19  15  84 N12       30.16R VSB 1   WCI   7
PITTSBURGH     LGT SNOW  19  14  81 NW12G20   30.13R VSB 1   WCI   7
INDIANA*       FOG       21  18  86 N9G18     30.14R VSB 1   WCI  11
LATROBE        LGT SNOW  23  21  93 NW6       30.14R
WASHINGTON CO* CLOUDY    19  16  86 N9        30.17R WCI   9
$$

PAZ004>006-010>012-017>019-024>028-033>037-041-042-045-046-049>053-051100-
CENTRAL PENNSYLVANIA

CITY           SKY/WX    TMP DP  RH WIND       PRES   REMARKS
BRADFORD       LGT SNOW  12   4  70 NW14      30.06R WCI  -3
DUBOIS         LGT SNOW  18  12  77 NW10G20   30.07R WCI   6
CLEARFIELD     LGT SNOW  22  17  81 NW9       30.06R WCI  12
JOHNSTOWN      FLURRIES  20  16  84 NW17      29.99R WCI   5
ALTOONA        CLOUDY    27  18  69 NW9       30.02R
STATE COLLEGE  CLOUDY    28  17  61 NW9       30.03R
WILLIAMSPORT   CLOUDY    31  16  54 NW13      30.04R
SELINSGROVE    CLOUDY    35  21  56 N8        30.02R
FT INDIANTOWN  LGT SNOW  32  29  88 NW10      29.99F FOG
CAPITAL CITY   LGT SNOW  32  29  88 NW8       30.03R VSB 1
HARRISBURG     LGT SNOW  32  29  88 N14       30.02R VSB 1
YORK           LGT SNOW  32  29  88 NW9G22    30.02R FOG
$$

PAZ038>040-043-044-047-048-054-055-060>062-067>071-051100-
EASTERN PENNSYLVANIA

CITY           SKY/WX    TMP DP  RH WIND       PRES   REMARKS
SCRANTON       LGT SNOW  29  21  72 N12G21    29.99R
MOUNT POCONO   LGT SNOW  27  20  75 NW14G23   29.90R
ALLENTOWN      LGT SNOW  33  31  92 N3        30.00R FOG
QUAKERTOWN*    CLOUDY    32  32 100 N6        29.99R
READING        LGT SNOW  33  31  92 NW9       30.01R FOG
LANCASTER      LGT SNOW  33  32  96 NW6       30.00R FOG
COATESVILLE    LGT SNOW  34  34 100 NW12      30.00R VSB 1
POTTSTOWN      LGT SNOW  32  32 100 W8        30.01R FOG
BLUE BELL      CLOUDY    34  34 100 CALM      29.99R
DOYLESTOWN     LGT SNOW  32  32 100 N6        29.98R FOG
WILLOW GROVE   NOT AVBL
NORTH PHILA    LGT SNOW  36  32  85 NW9       30.01R
PHILADELPHIA   LGT RAIN  36  33  89 NW12      30.02R
$$



USA.gov is the U.S. government's official web portal to all federal, state and local government web resources and services.